Wind_Speed
27 25 23 21 15 14 21 18 16 22 26 27 15 16 15 13 18 9 11 11 17 12 10 12 12 12 11 11 10 10 10 10 11 11 12 12 13 12 14 14 15 16 16 15 15 14 14 14 14
30 27 26 25 16 22 21 24 18 18 22 26 27 17 17 15 16 15 7 14 19 15 13 14 14 13 12 12 11 11 11 11 11 12 12 13 13 13 14 15 16 16 16 15 15 14 14 14 14
32 29 28 27 23 27 18 24 16 17 17 22 24 24 19 18 17 16 15 16 21 18 13 13 14 15 15 14 13 12 11 12 11 11 12 13 13 12 13 15 16 17 17 16 16 16 16 16 16
34 32 28 28 30 33 22 20 22 17 13 18 20 21 20 18 17 16 17 21 23 20 15 14 14 15 17 18 17 15 13 13 12 12 13 13 13 13 13 14 14 15 15 15 15 16 16 15 15
36 33 32 31 34 34 31 19 21 20 14 19 22 20 21 18 16 17 20 25 26 23 20 15 14 14 16 18 20 20 20 17 15 15 15 15 14 14 15 15 15 15 15 16 15 16 15 15 14
40 37 29 37 42 30 29 28 18 21 17 20 21 20 21 18 18 18 25 30 29 26 25 21 16 14 15 16 17 18 18 19 20 19 17 17 16 16 16 16 16 15 15 15 14 14 14 13 13
41 46 38 46 44 36 33 30 26 24 16 16 20 21 21 19 18 21 25 29 31 29 27 26 19 15 15 15 15 17 16 16 16 18 19 20 17 17 18 18 18 17 16 15 15 15 14 14 14
45 44 45 41 45 48 40 32 28 25 20 12 16 21 22 24 22 20 23 26 29 29 29 28 25 18 17 15 15 15 15 15 14 14 16 16 17 18 17 16 15 16 17 18 18 17 17 16 15
44 33 40 53 46 48 42 38 33 28 25 18 14 21 23 24 24 24 21 24 27 29 30 29 28 24 19 18 17 16 15 14 13 13 12 12 12 13 12 11 12 12 11 10 11 11 11 11 10
42 47 46 44 44 40 41 38 33 34 33 29 19 20 25 25 26 24 25 23 25 28 30 30 30 28 24 21 19 18 16 15 13 12 10 9 9 7 6 5 4 4 5 4 4 3 4 4 4
40 48 44 30 41 35 39 38 36 33 30 32 27 20 24 27 27 27 25 23 23 24 29 32 32 31 28 25 22 20 18 16 15 13 10 9 8 6 5 4 3 3 4 4 4 5 5 6 6
39 43 41 34 28 41 42 35 32 31 35 28 27 22 25 27 29 28 28 28 25 23 25 30 34 33 31 29 27 24 21 18 18 16 14 12 11 10 9 9 8 8 8 8 8 9 9 9 9
39 33 32 34 20 27 35 35 35 33 33 33 32 31 24 25 29 29 27 27 26 23 23 27 32 35 33 32 31 28 24 23 21 19 17 16 15 14 13 13 12 12 11 11 11 11 11 11 11
35 30 20 24 33 15 25 34 32 34 32 36 35 38 30 27 30 28 26 24 24 23 21 26 29 33 34 33 32 30 29 28 24 22 21 19 18 18 17 16 15 15 14 13 12 12 13 13 12
20 35 18 24 23 26 29 29 38 33 33 32 37 43 32 22 28 28 26 24 22 22 21 23 24 26 31 32 32 31 31 28 26 25 23 21 20 20 19 17 16 15 14 14 14 14 14 15 13
23 30 26 21 26 23 28 33 30 30 31 31 28 45 36 24 26 27 26 24 25 25 24 23 19 22 28 30 30 30 28 26 24 23 21 18 18 17 17 15 15 15 15 15 15 15 14 14 15
33 23 40 21 25 27 26 24 22 27 27 29 31 40 41 33 28 29 29 25 25 25 26 25 19 16 18 24 27 27 25 23 22 20 18 17 16 16 15 15 16 16 17 16 16 16 17 18 19
36 18 32 33 27 29 27 28 25 27 26 24 26 26 39 44 31 29 30 28 25 27 28 30 25 21 17 18 20 22 22 22 21 19 18 17 17 17 16 16 17 17 17 18 19 20 21 21 23
37 25 25 32 22 27 28 29 28 24 19 26 26 27 31 37 34 33 34 28 24 25 26 29 29 26 24 23 20 20 19 20 20 18 18 18 18 19 18 18 19 20 20 21 22 23 24 25 27
32 32 21 26 22 21 23 23 23 26 25 22 23 24 30 38 41 39 41 27 28 25 22 25 26 20 26 21 21 23 23 22 22 21 21 23 22 20 20 21 22 24 25 26 26 27 28 29 29
27 33 26 28 25 20 20 25 24 23 22 22 25 27 30 43 40 44 39 35 31 26 22 14 16 19 21 24 28 28 28 26 26 24 25 25 26 26 27 28 28 28 28 28 29 30 31 32 32
25 29 26 20 31 12 19 6 24 27 26 25 24 29 28 31 46 38 31 35 30 28 22 21 23 24 22 24 24 25 27 28 28 29 29 30 30 31 32 32 32 32 32 31 31 33 34 35 35
13 25 31 17 22 17 17 9 13 16 35 32 28 27 27 26 26 36 30 28 29 32 28 25 27 25 23 23 24 25 25 27 29 30 32 32 33 32 32 32 32 32 34 34 35 36 37 38 39
21 26 22 19 15 7 19 19 9 20 21 28 29 26 26 27 30 28 37 36 37 33 31 31 28 26 25 26 26 25 25 27 28 30 31 32 33 34 34 35 36 36 37 38 39 41 40 39 38
25 36 9 6 6 4 14 17 22 6 11 22 24 25 29 27 31 31 36 35 36 33 31 32 33 32 29 30 30 29 28 29 28 28 29 30 32 34 35 36 37 38 39 40 40 40 39 37 36
39 31 8 7 6 4 8 9 14 13 16 8 12 23 27 28 33 38 37 38 41 34 36 35 35 36 32 31 31 30 30 29 29 30 33 34 35 37 37 37 37 36 36 37 37 38 37 36 34
31 16 6 10 8 4 6 4 3 0 11 11 16 13 15 24 27 34 40 40 38 35 39 39 38 33 33 32 33 33 32 33 34 35 35 34 34 34 34 34 35 34 34 33 32 32 32 30 28
17 18 6 4 4 2 0 3 6 7 3 7 16 20 15 17 21 23 29 33 39 35 35 35 36 38 35 36 36 36 36 36 35 33 32 30 31 30 29 28 29 28 27 27 27 28 29 27 27
13 17 6 6 4 3 3 2 9 5 3 3 8 15 18 20 20 20 22 29 31 33 35 34 33 33 35 35 36 37 36 34 32 31 30 29 29 29 28 29 29 29 29 29 29 30 30 30 30
17 15 20 7 5 4 3 2 5 7 8 11 4 12 13 16 17 17 18 24 27 30 32 33 33 32 33 34 33 32 31 31 30 30 30 30 30 30 31 31 31 31 31 31 32 33 33 33 32
Wind_Direction
210 209 206 204 200 214 218 214 211 213 217 221 203 193 191 193 200 179 192 177 161 147 134 133 120 116 115 113 110 107 102 97 93 89 85 83 81 82 81 85 88 87 87 88 88 88 85 82 80
207 204 202 201 207 209 218 210 205 207 211 223 219 204 200 204 203 202 180 183 163 149 142 132 118 112 112 113 112 110 107 103 99 96 93 91 88 85 84 87 87 88 89 88 87 84 83 80 77
204 201 200 200 209 216 214 209 196 201 203 215 223 218 203 209 204 208 207 191 171 156 152 142 129 113 109 111 113 113 110 107 105 102 100 97 94 91 91 89 88 88 87 86 85 85 83 80 78
199 196 199 203 211 216 214 208 197 197 198 204 207 207 199 196 199 200 199 193 181 163 160 147 140 125 112 106 106 107 106 104 104 100 98 96 97 96 94 94 94 91 89 86 84 83 80 79 77
200 199 202 210 215 220 214 203 200 201 210 191 182 184 189 192 194 194 189 191 181 170 168 158 149 140 125 113 106 100 95 95 95 94 93 94 94 95 95 95 93 92 92 89 85 83 81 78 76
202 199 201 210 215 214 214 208 196 199 209 197 186 178 186 182 189 193 186 185 182 179 176 168 157 158 143 129 118 108 98 92 88 89 90 92 94 95 92 89 89 90 89 88 84 81 78 74 69
204 206 211 219 216 214 214 210 205 198 186 200 197 185 178 183 188 185 184 187 186 181 182 175 170 169 166 151 136 126 116 103 93 86 85 83 87 90 88 84 82 80 79 80 81 79 75 71 67
207 209 214 217 218 220 218 217 213 209 205 201 204 197 189 182 187 187 188 187 191 190 187 185 181 181 184 175 160 148 139 127 112 102 98 94 84 77 78 82 76 72 69 67 66 66 62 58 55
208 203 214 222 225 227 216 221 223 226 228 219 222 207 194 189 187 196 192 194 196 196 195 192 190 187 194 188 180 170 162 154 140 131 123 119 112 105 100 83 73 64 60 62 58 56 56 60 57
208 210 215 222 228 230 230 228 234 237 233 235 226 213 202 196 190 197 203 199 197 203 202 200 197 195 196 200 197 189 182 175 170 161 156 151 148 144 138 121 105 69 50 41 29 24 23 23 11
207 214 212 221 225 227 230 232 236 234 235 228 218 229 202 202 194 192 200 206 209 208 207 207 203 200 198 203 206 204 199 195 195 191 188 187 189 199 214 230 242 252 273 283 294 307 306 308 307
209 213 217 222 230 226 227 229 228 223 236 237 225 229 212 206 203 197 197 197 207 214 214 212 208 206 203 204 209 209 211 211 214 213 214 217 222 228 237 246 253 258 265 271 277 284 288 292 299
209 212 217 214 215 228 226 229 231 231 222 236 224 220 232 205 202 202 200 202 202 211 221 214 213 210 208 209 211 212 214 219 223 225 229 234 237 242 247 252 257 261 263 267 272 279 284 287 290
213 200 214 221 218 210 219 225 226 225 223 224 232 217 233 220 204 202 204 202 201 205 222 216 214 214 213 214 215 214 216 221 226 231 234 240 244 247 250 254 256 259 264 268 272 276 278 283 290
209 199 206 208 211 215 224 227 226 226 225 220 228 218 223 237 211 206 203 201 202 201 199 206 212 215 216 217 219 219 222 225 228 233 237 239 243 247 250 252 255 258 261 266 270 272 275 281 286
196 192 195 196 197 204 218 232 226 224 227 229 234 215 214 232 218 209 208 204 198 198 199 202 203 214 214 213 215 218 221 224 227 231 233 235 237 240 245 248 250 255 259 265 266 272 274 279 285
192 193 203 195 192 202 211 226 210 223 227 225 223 214 218 227 229 212 207 202 201 196 201 203 201 205 201 203 207 210 212 212 216 222 226 230 235 240 245 248 253 259 263 264 271 268 274 280 286
189 184 195 200 199 201 210 225 223 231 232 226 221 216 225 234 219 212 207 205 206 205 197 201 204 208 208 199 200 204 207 210 217 223 227 231 234 238 242 248 255 259 261 264 267 271 277 281 286
194 185 195 195 198 202 216 231 226 225 234 228 224 217 215 226 214 208 206 204 205 211 207 210 213 214 209 208 210 212 215 220 225 229 233 235 239 245 248 250 255 261 263 262 267 273 275 279 283
193 187 185 191 203 205 215 226 227 234 235 232 227 208 215 209 221 210 209 200 199 207 208 219 217 229 220 216 225 229 230 231 231 232 239 246 250 254 256 256 258 261 264 265 268 272 274 279 282
188 190 182 192 192 198 211 235 230 226 230 227 224 206 209 218 220 217 207 202 203 192 208 210 230 233 238 233 233 232 237 239 241 245 249 254 254 253 254 257 261 262 264 267 271 274 275 277 279
185 199 190 194 189 191 201 246 233 220 230 226 221 220 213 209 219 220 204 199 209 202 207 226 238 245 244 245 243 242 241 241 241 244 246 247 248 250 255 261 263 262 264 269 270 270 274 276 280
201 189 195 192 190 198 209 232 238 222 226 228 225 227 222 216 209 208 197 202 211 215 218 227 240 249 253 255 250 245 244 243 245 247 250 251 252 253 255 258 260 261 264 267 267 270 274 278 282
156 176 178 190 183 223 228 211 248 237 237 234 239 238 238 229 222 220 217 209 215 219 229 235 240 246 257 252 251 252 252 253 253 254 256 259 259 260 260 260 260 261 264 267 269 272 276 279 281
163 156 140 165 196 220 203 213 233 230 230 228 232 238 242 241 231 223 223 209 230 233 240 239 244 247 248 251 253 253 255 257 256 257 261 262 263 262 262 262 263 265 267 270 273 275 277 279 280
163 167 166 165 174 165 158 220 247 244 236 193 207 225 231 233 231 229 233 232 247 239 243 245 244 245 246 246 249 254 257 259 262 266 267 266 266 265 264 263 264 266 267 269 270 272 274 276 279
169 185 156 101 103 128 197 238 218 317 212 215 230 208 233 226 232 234 233 237 245 248 243 246 246 245 245 250 254 258 264 268 271 273 269 268 269 267 267 266 267 267 267 268 268 270 274 277 278
168 172 149 119 121 180 182 207 181 130 176 236 237 240 226 218 222 228 230 237 235 241 239 240 244 246 248 253 259 265 268 272 271 267 264 265 266 266 265 266 266 266 266 267 269 271 271 272 272
176 194 179 141 105 140 141 240 147 115 48 303 239 227 204 219 221 230 233 222 226 230 231 236 241 247 251 255 259 262 263 263 263 262 261 261 262 264 266 266 266 267 268 269 269 269 271 273 274
201 209 199 183 179 132 86 146 150 116 85 57 38 207 217 218 228 232 229 221 219 221 227 235 241 247 252 257 258 257 256 255 255 257 259 260 261 262 264 265 267 267 268 268 268 270 272 274 276
Height
3134 3138 3142 3146 3153 3149 3148 3151 3154 3157 3161 3163 3166 3170 3173 3176 3179 3183 3182 3184 3187 3189 3191 3192 3194 3195 3196 3197 3198 3199 3200 3201 3201 3202 3203 3204 3204 3204 3204 3204 3204 3204 3205 3206 3206 3206 3207 3207 3207
3130 3134 3139 3141 3144 3143 3144 3149 3152 3154 3156 3158 3163 3167 3170 3173 3176 3179 3182 3184 3187 3190 3191 3193 3194 3195 3196 3197 3199 3200 3201 3201 3202 3203 3204 3205 3205 3205 3206 3206 3205 3206 3206 3207 3207 3208 3208 3208 3208
3126 3131 3135 3137 3138 3137 3141 3146 3150 3151 3153 3155 3160 3165 3168 3170 3174 3178 3181 3184 3186 3189 3191 3193 3195 3197 3198 3198 3200 3201 3202 3203 3203 3204 3205 3206 3206 3207 3207 3207 3207 3207 3207 3208 3208 3209 3209 3209 3209
3122 3126 3131 3130 3130 3135 3140 3144 3148 3150 3152 3154 3157 3162 3165 3168 3172 3175 3179 3183 3185 3188 3191 3194 3196 3198 3199 3200 3200 3201 3203 3204 3204 3205 3206 3207 3207 3208 3208 3209 3209 3209 3209 3210 3210 3210 3210 3210 3211
3117 3121 3124 3125 3127 3132 3137 3142 3145 3148 3150 3152 3155 3159 3163 3166 3170 3173 3176 3180 3184 3187 3190 3193 3196 3199 3200 3201 3202 3203 3204 3205 3206 3207 3207 3208 3209 3209 3210 3210 3211 3211 3211 3211 3212 3211 3212 3212 3213
3111 3115 3117 3117 3122 3129 3135 3139 3142 3145 3148 3151 3155 3158 3162 3164 3167 3170 3174 3178 3182 3185 3189 3192 3195 3198 3201 3201 3202 3204 3205 3206 3207 3208 3209 3210 3211 3211 3211 3212 3213 3213 3213 3213 3213 3214 3214 3214 3214
3104 3107 3109 3113 3118 3126 3132 3136 3139 3143 3145 3150 3153 3156 3159 3162 3165 3167 3170 3176 3180 3184 3188 3190 3194 3197 3201 3202 3203 3204 3206 3207 3208 3209 3211 3212 3213 3213 3213 3214 3215 3215 3215 3215 3215 3216 3216 3216 3215
3099 3103 3106 3108 3113 3117 3129 3133 3138 3141 3145 3148 3151 3154 3155 3157 3161 3165 3169 3173 3178 3182 3186 3190 3192 3195 3199 3202 3204 3205 3206 3208 3209 3210 3211 3212 3213 3214 3215 3215 3216 3217 3217 3217 3217 3217 3217 3217 3217
3093 3097 3098 3101 3108 3113 3125 3129 3134 3137 3142 3146 3149 3152 3155 3157 3160 3164 3167 3171 3176 3180 3184 3187 3191 3193 3197 3201 3203 3204 3206 3208 3209 3210 3211 3213 3213 3214 3215 3216 3217 3217 3217 3217 3217 3218 3218 3218 3217
3088 3090 3092 3100 3106 3111 3121 3127 3130 3135 3139 3143 3147 3149 3152 3155 3157 3162 3166 3170 3173 3178 3181 3185 3188 3191 3195 3199 3202 3204 3205 3207 3209 3210 3211 3212 3213 3214 3215 3215 3216 3216 3217 3217 3217 3217 3218 3218 3218
3082 3083 3089 3095 3102 3108 3115 3121 3125 3129 3133 3138 3145 3147 3149 3151 3154 3157 3163 3167 3172 3175 3178 3182 3185 3189 3192 3197 3200 3203 3205 3206 3208 3209 3210 3211 3212 3213 3214 3215 3215 3215 3216 3216 3216 3216 3216 3217 3217
3078 3079 3086 3093 3098 3104 3110 3116 3120 3125 3130 3135 3142 3145 3146 3148 3151 3154 3158 3163 3168 3172 3176 3179 3182 3186 3190 3193 3197 3200 3203 3205 3206 3208 3209 3210 3211 3212 3212 3213 3213 3214 3214 3214 3214 3214 3214 3215 3215
3073 3078 3083 3090 3097 3100 3106 3110 3116 3120 3126 3129 3136 3142 3143 3145 3148 3151 3155 3159 3163 3168 3172 3175 3179 3182 3186 3190 3193 3197 3199 3201 3203 3205 3207 3208 3209 3209 3210 3211 3211 3212 3212 3212 3212 3212 3212 3212 3212
3071 3076 3082 3089 3094 3097 3101 3105 3110 3116 3120 3125 3129 3137 3141 3142 3144 3148 3152 3156 3159 3164 3169 3171 3175 3179 3182 3186 3189 3192 3195 3196 3199 3201 3203 3205 3206 3207 3207 3208 3209 3209 3209 3210 3210 3210 3209 3209 3208
3069 3075 3080 3084 3089 3094 3098 3100 3100 3111 3115 3121 3125 3132 3137 3138 3141 3145 3149 3152 3156 3161 3164 3168 3171 3174 3177 3180 3184 3188 3191 3193 3195 3197 3199 3200 3202 3203 3204 3204 3205 3206 3206 3207 3207 3207 3206 3206 3205
3067 3072 3075 3080 3084 3090 3094 3092 3099 3106 3110 3115 3121 3126 3132 3135 3138 3142 3145 3149 3151 3156 3161 3164 3167 3170 3172 3175 3179 3182 3186 3189 3191 3193 3195 3197 3198 3199 3200 3201 3202 3202 3203 3204 3204 3204 3203 3203 3202
3061 3062 3068 3077 3080 3086 3089 3090 3096 3101 3105 3110 3116 3120 3126 3131 3134 3138 3141 3145 3148 3152 3157 3161 3163 3166 3169 3171 3174 3178 3181 3184 3187 3190 3192 3193 3195 3196 3197 3198 3198 3199 3199 3200 3200 3200 3199 3199 3198
3051 3060 3065 3072 3078 3082 3086 3088 3093 3096 3101 3106 3110 3114 3121 3127 3131 3134 3137 3140 3143 3147 3150 3157 3161 3163 3165 3168 3171 3174 3177 3181 3184 3186 3189 3190 3191 3192 3193 3194 3194 3194 3195 3196 3196 3195 3195 3194 3193
3051 3058 3064 3070 3074 3080 3083 3086 3089 3092 3096 3100 3104 3109 3115 3123 3127 3129 3132 3136 3141 3145 3147 3150 3154 3159 3161 3164 3168 3171 3175 3178 3180 3183 3185 3186 3187 3188 3189 3190 3190 3190 3191 3191 3190 3190 3190 3189 3188
3051 3056 3062 3069 3075 3079 3082 3083 3086 3088 3091 3096 3100 3104 3108 3115 3122 3124 3127 3131 3136 3141 3144 3145 3146 3152 3159 3158 3163 3167 3170 3173 3176 3178 3180 3181 3182 3183 3184 3185 3185 3185 3186 3185 3185 3185 3184 3183 3182
3050 3054 3060 3065 3072 3076 3080 3081 3081 3083 3086 3089 3094 3099 3105 3111 3116 3118 3123 3127 3131 3135 3140 3144 3148 3151 3154 3158 3160 3163 3165 3168 3171 3173 3174 3176 3176 3177 3177 3179 3179 3179 3179 3180 3180 3179 3178 3176 3176
3049 3055 3060 3065 3071 3073 3077 3078 3075 3078 3081 3084 3089 3093 3097 3101 3110 3114 3118 3122 3126 3131 3136 3140 3145 3148 3150 3153 3154 3157 3159 3162 3164 3165 3167 3168 3169 3170 3171 3172 3172 3173 3173 3174 3174 3172 3171 3169 3168
3047 3053 3060 3065 3069 3073 3074 3079 3069 3072 3074 3079 3084 3087 3092 3095 3101 3106 3112 3116 3122 3127 3130 3136 3139 3141 3144 3146 3148 3151 3153 3155 3157 3159 3160 3161 3162 3163 3164 3164 3165 3166 3165 3166 3165 3164 3163 3162 3160
3045 3054 3062 3068 3071 3071 3070 3073 3065 3067 3072 3076 3080 3083 3087 3091 3096 3100 3107 3110 3116 3122 3125 3130 3133 3136 3138 3140 3142 3144 3146 3148 3150 3151 3153 3153 3154 3155 3155 3156 3157 3157 3157 3157 3156 3155 3154 3154 3152
3042 3051 3059 3069 3069 3065 3065 3070 3063 3066 3067 3071 3075 3078 3082 3086 3090 3096 3101 3104 3111 3115 3119 3123 3126 3130 3133 3134 3136 3137 3139 3141 3142 3144 3145 3146 3146 3146 3147 3147 3147 3148 3148 3148 3147 3146 3146 3145 3144
3040 3045 3045 3053 3057 3060 3064 3062 3059 3063 3066 3068 3070 3073 3075 3079 3084 3089 3094 3101 3104 3108 3113 3117 3120 3123 3125 3127 3129 3130 3132 3133 3135 3136 3137 3138 3138 3138 3138 3138 3138 3139 3139 3139 3139 3138 3137 3136 3136
3040 3044 3046 3047 3054 3058 3059 3059 3058 3060 3062 3065 3067 3070 3072 3074 3078 3082 3087 3093 3097 3099 3104 3110 3113 3116 3118 3120 3122 3124 3126 3126 3127 3128 3128 3128 3128 3128 3129 3129 3129 3130 3130 3130 3130 3129 3128 3128 3128
3039 3044 3046 3047 3055 3056 3057 3057 3057 3059 3061 3063 3063 3065 3067 3069 3074 3077 3081 3085 3088 3093 3097 3102 3105 3108 3110 3112 3115 3117 3117 3118 3119 3119 3120 3120 3120 3121 3121 3122 3122 3122 3122 3122 3121 3122 3122 3122 3122
3038 3039 3043 3046 3049 3051 3056 3055 3055 3058 3059 3059 3059 3061 3063 3066 3069 3072 3073 3077 3082 3087 3091 3095 3098 3101 3104 3105 3107 3108 3109 3109 3110 3111 3112 3112 3113 3113 3113 3114 3115 3115 3116 3116 3116 3115 3115 3115 3115
3037 3039 3042 3044 3051 3051 3054 3055 3055 3056 3056 3056 3056 3058 3059 3062 3065 3067 3069 3073 3076 3080 3085 3088 3091 3094 3096 3097 3099 3100 3100 3102 3103 3104 3104 3104 3105 3105 3106 3106 3107 3107 3108 3108 3108 3107 3107 3107 3106